Wind_Speed
24 25 25 25 25 25 24 24 24 24 24 24 23 22 21 21 20 19 18 18 18 18 18 17 17 17 16 16 16 17 16 15 14 13 12 11 11 10 10 10 12 16 19
24 25 26 26 27 27 28 28 28 28 28 28 27 26 25 25 24 23 22 21 21 21 21 21 21 21 20 20 19 20 19 18 17 17 16 15 14 13 12 12 12 14 16
22 23 24 25 26 28 29 29 30 30 31 31 31 30 29 29 28 27 26 25 24 25 25 26 26 25 24 24 23 23 23 22 21 21 20 19 18 17 16 15 15 15 16
19 20 22 24 25 27 28 29 30 31 32 33 33 33 32 32 31 31 30 29 28 28 28 29 29 29 29 27 26 26 26 25 25 24 24 23 22 21 20 19 18 17 17
17 19 21 23 24 26 28 29 30 31 33 34 34 34 34 34 34 33 33 32 31 31 31 31 32 33 32 31 30 30 29 29 28 28 27 26 25 25 24 23 22 21 19
18 20 22 24 26 27 29 30 31 33 34 35 36 36 36 36 36 36 35 35 35 34 34 34 34 35 35 35 35 34 33 32 31 30 30 29 28 28 27 27 25 23 21
22 24 25 27 29 31 32 34 35 36 37 38 38 39 39 39 39 39 39 38 38 38 37 37 37 37 37 38 38 37 37 35 34 33 33 32 32 31 30 30 28 26 24
24 26 28 30 32 33 35 37 38 39 40 41 42 42 43 43 43 43 43 43 42 41 41 40 40 40 39 39 40 40 40 38 37 36 36 35 34 34 33 32 30 29 27
24 26 29 31 33 35 36 37 38 39 41 42 43 45 46 48 48 48 48 47 46 45 44 44 43 43 43 42 42 43 42 41 40 39 38 37 37 36 35 33 31 30 29
26 29 31 33 36 38 40 41 42 42 43 43 43 44 45 47 49 50 51 51 50 50 49 48 47 46 46 45 45 45 45 44 43 42 41 40 39 38 37 35 33 32 31
29 31 33 35 37 39 41 43 44 46 46 47 47 47 47 47 47 48 50 51 51 52 52 51 51 50 49 49 48 48 48 47 46 45 43 42 41 40 39 37 35 34 33
34 36 38 40 42 43 45 46 48 49 50 50 50 49 50 50 50 49 50 50 51 51 52 52 52 52 52 51 51 51 50 50 49 48 46 44 43 42 41 40 37 36 35
39 42 44 46 48 50 51 52 53 54 54 55 55 55 54 53 53 52 52 52 51 51 52 52 53 53 53 53 54 53 52 52 51 51 49 47 45 45 44 43 40 38 37
47 49 52 54 56 57 58 59 59 60 60 60 60 60 60 59 58 57 56 55 55 54 53 53 53 54 54 53 54 53 53 53 53 53 52 50 48 47 46 45 43 40 38
54 57 60 62 64 66 67 68 68 68 68 68 67 66 65 64 63 62 61 60 59 58 57 56 55 55 55 55 54 53 53 54 55 55 55 53 51 50 48 47 45 42 40
61 64 67 69 71 73 75 76 77 78 77 76 75 74 73 71 69 67 66 65 64 63 62 61 60 59 58 58 56 55 54 55 56 56 57 56 55 53 51 49 47 44 42
67 71 73 76 78 80 82 83 84 84 85 84 83 81 80 78 77 74 71 70 69 68 67 66 65 64 63 62 60 58 57 57 58 58 58 58 57 56 54 52 50 47 45
75 77 80 82 83 85 87 88 88 88 87 86 85 85 84 83 82 80 78 75 73 72 71 70 69 68 67 66 65 62 60 59 58 59 59 59 59 58 56 55 53 51 48
80 82 84 86 87 88 89 88 87 86 85 84 82 81 82 83 84 84 83 81 78 76 75 74 73 72 70 70 69 67 64 62 61 60 60 60 60 59 59 57 56 54 52
83 85 87 88 87 86 82 79 76 73 71 70 68 69 71 75 80 85 86 84 82 81 79 77 76 75 73 72 71 70 68 66 64 63 61 61 61 60 60 59 59 58 55
84 86 86 84 80 74 69 65 62 57 53 50 50 52 54 58 65 76 85 87 86 84 83 81 80 78 76 75 73 72 71 69 67 66 65 63 62 62 61 61 61 60 58
85 85 82 75 68 64 61 58 53 49 46 44 45 46 47 47 51 59 72 84 89 88 86 85 83 81 79 77 76 74 72 71 69 68 68 67 65 64 63 63 63 63 62
82 78 71 64 61 58 55 52 49 47 46 46 45 45 45 45 45 47 55 70 83 90 90 89 87 85 83 80 79 77 75 73 72 71 70 69 68 67 66 65 65 65 65
76 70 63 60 58 56 54 52 50 49 47 46 45 44 43 43 43 43 43 51 66 82 90 91 90 89 87 84 82 81 79 77 75 74 72 71 71 69 68 67 67 67 67
69 63 59 58 58 57 56 55 53 52 51 49 48 46 44 42 41 40 39 40 47 61 77 87 91 91 90 88 85 84 83 81 78 77 75 74 73 71 70 70 69 69 69
64 60 59 60 60 60 60 59 57 55 54 53 51 49 46 43 40 38 36 35 36 42 54 69 81 88 90 90 89 87 86 84 82 80 78 76 75 73 72 71 71 71 70
Wind_Direction
246 247 249 250 250 251 252 253 254 256 258 260 262 265 267 267 267 267 265 261 255 250 246 242 239 236 235 235 235 233 232 234 238 241 244 248 251 249 242 234 229 227 226
256 257 258 259 259 258 257 258 259 259 260 261 262 263 264 264 264 264 263 262 258 254 250 246 243 240 239 238 237 234 233 234 237 241 244 247 249 251 249 245 239 233 229
260 260 262 262 263 264 264 264 264 264 264 263 263 263 263 263 263 264 262 260 258 255 252 248 245 242 241 241 240 238 236 236 238 241 243 245 247 248 248 247 246 241 235
264 264 264 263 263 263 264 265 265 265 265 264 264 263 263 263 263 263 262 260 256 253 251 248 246 243 241 241 242 242 241 239 239 240 242 244 245 245 245 245 246 246 243
275 273 272 270 268 267 266 266 266 265 266 265 265 263 262 261 261 261 260 259 256 253 251 249 246 244 241 240 241 242 243 243 242 243 243 244 245 244 244 243 243 244 245
284 281 279 277 275 274 272 271 270 269 268 268 267 266 264 262 261 260 259 257 255 253 251 249 247 245 243 240 240 242 243 244 244 245 245 245 244 244 243 243 242 242 243
287 285 283 281 279 277 275 274 271 270 268 268 267 265 264 263 262 261 259 258 255 253 251 249 248 245 243 242 241 242 243 245 246 246 246 245 244 243 243 243 243 242 242
293 292 290 288 286 283 280 277 274 272 269 268 266 265 264 262 261 260 259 258 257 255 252 250 248 246 243 242 241 242 243 244 246 247 246 245 244 243 242 242 243 243 242
301 298 296 294 292 289 286 283 280 277 274 271 268 266 264 263 262 260 258 257 256 255 253 251 249 247 245 243 241 241 242 243 244 245 245 244 243 242 241 240 240 241 241
304 301 299 296 293 291 288 286 283 281 278 276 273 270 267 265 263 261 259 258 256 254 252 250 249 248 247 245 243 241 240 240 241 243 243 242 240 240 240 238 236 238 240
304 301 298 295 293 291 289 287 285 282 280 278 275 273 270 267 264 262 260 258 256 253 252 250 249 247 246 246 244 242 240 239 239 240 240 239 238 237 238 237 236 236 239
302 300 298 295 293 291 288 286 284 283 281 279 277 274 272 270 266 263 260 258 256 254 251 249 249 248 247 246 245 243 240 238 237 238 238 237 236 235 236 237 236 236 237
303 300 297 295 292 289 287 285 283 281 279 278 276 274 272 270 268 265 261 258 256 254 252 250 248 247 246 245 244 243 240 238 236 236 236 235 234 235 236 237 238 237 236
303 300 297 295 293 290 288 286 283 281 279 276 275 273 271 269 268 265 263 259 256 254 252 251 249 247 246 245 245 244 242 239 237 236 235 234 233 234 236 238 239 238 235
303 301 299 298 296 294 292 290 287 284 281 278 275 273 270 268 266 264 262 259 257 254 251 249 248 247 247 245 244 243 241 240 238 236 234 234 234 234 235 237 238 237 234
304 302 301 299 298 296 295 293 291 289 286 282 278 274 271 268 264 261 259 257 256 254 252 249 247 246 246 246 245 243 241 239 237 236 234 233 234 234 234 235 236 235 234
304 302 301 300 299 297 296 293 291 289 286 283 280 276 271 268 264 261 257 255 253 252 251 249 247 245 244 245 245 245 243 241 238 235 234 233 233 233 233 234 235 234 233
305 304 302 301 300 298 295 293 290 287 285 282 278 275 271 267 263 260 258 255 252 250 249 248 247 246 244 243 243 243 243 243 240 237 234 232 232 232 232 233 234 234 233
307 306 305 303 301 299 297 295 293 292 290 287 283 277 271 266 262 259 256 254 252 250 248 247 246 245 244 244 243 242 241 241 240 239 236 233 232 231 232 232 233 234 234
311 310 308 306 303 301 300 299 299 298 297 294 290 285 277 268 261 257 254 252 250 249 247 246 245 244 243 243 242 241 241 240 239 239 237 235 233 231 231 232 232 233 233
314 312 309 307 306 305 304 304 303 301 299 298 296 292 286 277 267 257 252 249 247 246 245 245 244 242 242 241 241 241 240 240 239 238 238 237 235 232 231 231 232 232 232
314 311 309 308 309 309 308 307 305 304 302 301 300 298 295 289 279 266 255 248 245 243 243 242 242 241 240 240 239 239 239 239 239 238 238 237 236 234 231 231 231 232 232
314 312 311 310 311 312 311 309 307 304 304 304 304 303 300 297 294 283 266 253 245 242 240 240 240 239 238 238 238 237 237 236 237 237 237 237 237 236 233 231 231 232 233
315 314 313 313 313 313 312 310 306 302 299 299 300 302 301 298 297 294 284 267 251 243 240 238 237 237 237 236 237 237 237 236 235 235 236 236 236 236 235 233 232 232 233
316 315 315 314 314 313 311 309 306 302 298 296 297 298 300 299 297 296 292 282 266 251 242 238 237 236 236 235 235 236 237 236 235 235 234 235 236 236 235 234 234 233 233
318 317 316 315 314 313 311 308 305 301 298 294 293 293 294 295 295 294 293 288 278 264 250 242 238 236 235 235 235 235 236 237 237 236 236 234 234 235 236 235 234 234 234
Height
5872 5871 5871 5870 5870 5869 5869 5869 5868 5868 5868 5867 5867 5866 5865 5865 5864 5864 5863 5862 5862 5862 5861 5861 5861 5861 5861 5862 5863 5864 5865 5865 5865 5865 5865 5866 5866 5866 5866 5867 5867 5868 5869
5869 5868 5867 5867 5866 5865 5865 5864 5863 5863 5863 5862 5862 5861 5860 5860 5859 5859 5858 5858 5857 5857 5857 5857 5857 5857 5858 5858 5859 5860 5861 5862 5862 5862 5863 5863 5864 5864 5865 5865 5865 5866 5867
5864 5863 5863 5862 5861 5860 5860 5859 5859 5858 5857 5857 5856 5856 5855 5854 5854 5853 5853 5852 5852 5852 5852 5852 5852 5853 5854 5854 5855 5856 5857 5858 5858 5859 5860 5861 5861 5862 5862 5863 5863 5864 5865
5859 5858 5858 5857 5856 5855 5854 5854 5853 5852 5852 5851 5850 5849 5849 5848 5848 5847 5846 5846 5846 5846 5846 5846 5847 5848 5849 5849 5850 5851 5852 5853 5854 5855 5856 5857 5857 5858 5859 5859 5860 5861 5862
5856 5855 5854 5852 5851 5850 5849 5848 5848 5847 5846 5845 5843 5842 5842 5841 5840 5840 5839 5839 5839 5839 5839 5840 5841 5842 5843 5844 5844 5845 5846 5847 5849 5850 5851 5852 5853 5854 5855 5855 5856 5857 5858
5854 5852 5850 5849 5847 5846 5845 5844 5842 5841 5840 5839 5837 5836 5835 5834 5833 5833 5832 5832 5832 5832 5833 5833 5834 5835 5836 5837 5838 5839 5840 5841 5843 5845 5846 5847 5848 5849 5850 5851 5852 5853 5854
5849 5847 5845 5844 5842 5840 5839 5837 5836 5834 5833 5831 5830 5829 5828 5827 5826 5825 5825 5825 5825 5825 5825 5825 5826 5827 5828 5830 5831 5832 5833 5835 5837 5838 5840 5841 5842 5843 5844 5845 5847 5848 5850
5845 5843 5840 5838 5836 5834 5831 5829 5827 5826 5824 5823 5821 5820 5818 5817 5816 5816 5815 5815 5816 5816 5816 5817 5818 5819 5820 5821 5823 5824 5826 5828 5830 5831 5833 5834 5836 5837 5838 5839 5841 5843 5845
5841 5839 5836 5833 5830 5827 5824 5821 5819 5816 5814 5812 5811 5809 5808 5807 5806 5805 5805 5805 5805 5806 5806 5807 5808 5810 5811 5813 5814 5816 5818 5820 5822 5824 5825 5827 5829 5830 5831 5833 5836 5837 5839
5837 5834 5831 5828 5824 5821 5817 5814 5811 5808 5805 5802 5800 5798 5797 5796 5795 5794 5794 5794 5795 5795 5796 5796 5798 5799 5801 5803 5805 5807 5809 5812 5814 5815 5817 5819 5822 5823 5824 5826 5829 5831 5833
5832 5828 5825 5821 5817 5813 5809 5805 5801 5798 5795 5792 5790 5788 5786 5784 5783 5782 5782 5782 5783 5783 5784 5785 5786 5788 5790 5792 5795 5797 5800 5803 5805 5806 5808 5811 5814 5816 5817 5819 5822 5825 5827
5826 5822 5817 5813 5808 5804 5799 5795 5791 5787 5783 5780 5777 5775 5773 5772 5771 5770 5770 5770 5770 5771 5772 5773 5774 5776 5778 5781 5783 5786 5789 5792 5795 5797 5799 5802 5805 5807 5809 5812 5815 5818 5821
5820 5815 5809 5804 5798 5793 5788 5783 5778 5774 5770 5767 5764 5761 5759 5758 5757 5757 5757 5757 5757 5758 5759 5760 5761 5763 5765 5767 5769 5772 5776 5780 5784 5787 5790 5793 5796 5798 5801 5804 5807 5810 5814
5811 5805 5799 5792 5786 5780 5774 5769 5764 5760 5756 5752 5748 5746 5744 5743 5742 5741 5742 5743 5743 5744 5746 5747 5748 5750 5751 5754 5756 5760 5763 5768 5772 5776 5780 5783 5786 5789 5792 5795 5798 5802 5806
5801 5794 5786 5779 5772 5765 5758 5752 5747 5742 5738 5735 5731 5728 5726 5725 5725 5724 5724 5726 5727 5729 5731 5733 5734 5736 5738 5740 5743 5746 5750 5754 5758 5763 5768 5772 5776 5780 5783 5786 5789 5793 5797
5789 5781 5772 5764 5756 5748 5740 5733 5726 5720 5716 5713 5710 5708 5706 5705 5705 5705 5706 5707 5709 5711 5714 5716 5719 5721 5724 5726 5729 5732 5735 5739 5744 5749 5754 5759 5764 5769 5773 5776 5779 5784 5788
5775 5765 5756 5747 5738 5729 5720 5712 5704 5697 5691 5687 5684 5682 5682 5682 5682 5683 5684 5686 5688 5691 5695 5698 5701 5705 5708 5712 5715 5719 5722 5726 5730 5735 5740 5746 5751 5757 5762 5766 5769 5774 5778
5759 5749 5738 5728 5718 5707 5697 5687 5678 5671 5664 5660 5656 5654 5654 5654 5656 5658 5660 5663 5666 5670 5673 5678 5682 5686 5691 5695 5699 5704 5708 5713 5717 5721 5726 5732 5737 5743 5749 5754 5759 5763 5768
5742 5731 5719 5708 5696 5685 5673 5661 5651 5642 5635 5630 5626 5624 5624 5625 5627 5630 5634 5638 5642 5647 5651 5656 5661 5667 5672 5677 5682 5687 5692 5698 5703 5708 5713 5718 5724 5730 5736 5742 5747 5752 5758
5723 5710 5698 5685 5673 5662 5650 5640 5630 5620 5611 5604 5599 5595 5594 5595 5597 5600 5605 5610 5616 5622 5628 5633 5639 5645 5652 5658 5663 5669 5675 5681 5687 5693 5699 5704 5710 5716 5723 5729 5735 5740 5746
5705 5691 5677 5664 5651 5641 5632 5623 5615 5606 5597 5589 5581 5575 5570 5568 5567 5570 5575 5581 5588 5595 5602 5609 5615 5623 5630 5637 5644 5651 5658 5664 5671 5678 5684 5690 5696 5703 5709 5716 5722 5728 5734
5688 5673 5658 5645 5634 5625 5616 5607 5599 5591 5584 5577 5570 5562 5555 5550 5545 5543 5544 5550 5558 5567 5575 5583 5591 5599 5608 5615 5623 5631 5640 5648 5655 5662 5668 5675 5682 5687 5694 5702 5709 5715 5722
5670 5655 5642 5631 5621 5612 5603 5594 5586 5578 5571 5564 5557 5549 5541 5534 5528 5524 5521 5522 5528 5536 5547 5556 5565 5575 5585 5594 5601 5610 5620 5630 5636 5644 5652 5659 5666 5673 5680 5687 5694 5701 5709
5653 5639 5628 5618 5609 5600 5590 5581 5573 5566 5559 5552 5544 5537 5530 5522 5515 5509 5504 5501 5502 5508 5517 5528 5539 5550 5561 5572 5579 5588 5598 5608 5617 5627 5634 5642 5649 5657 5664 5672 5679 5687 5694
5639 5627 5616 5606 5596 5587 5577 5568 5559 5551 5544 5537 5530 5524 5517 5510 5503 5496 5491 5486 5483 5484 5491 5501 5512 5524 5536 5548 5558 5567 5576 5586 5597 5606 5616 5625 5632 5640 5648 5655 5663 5671 5679
5626 5615 5605 5595 5584 5573 5562 5552 5543 5535 5527 5520 5514 5509 5504 5498 5492 5485 5479 5475 5471 5469 5471 5478 5487 5498 5511 5523 5535 5545 5555 5565 5576 5586 5596 5606 5615 5623 5630 5639 5647 5656 5664